Time,TemperatureF,DewpointF,PressureIn,WindDirection,WindDirectionDegrees,WindSpeedMPH,WindSpeedGustMPH,Humidity,HourlyPrecipIn,Conditions,Clouds,dailyrainin,SoftwareType,DateUTC
2013-03-10 00:01:00,62.0,62.0,30.17,NE,42,1.0,4.0,100,0.00,,,0.00,,2013-03-10 05:01:00,
2013-03-10 00:11:00,62.0,62.0,30.17,NE,42,1.0,4.0,100,0.00,,,0.00,,2013-03-10 05:11:00,
2013-03-10 00:22:00,61.0,61.0,30.17,ENE,67,2.0,4.0,100,0.00,,,0.00,,2013-03-10 05:22:00,
2013-03-10 00:32:00,61.0,61.0,30.17,ENE,60,2.0,6.0,100,0.00,,,0.00,,2013-03-10 05:32:00,
2013-03-10 00:42:00,61.0,61.0,30.16,NNE,29,2.0,4.0,100,0.00,,,0.00,,2013-03-10 05:42:00,
2013-03-10 00:52:00,61.0,61.0,30.16,NNE,29,2.0,4.0,100,0.00,,,0.00,,2013-03-10 05:52:00,
2013-03-10 01:01:00,61.0,61.0,30.16,NE,39,0.0,6.0,100,0.00,,,0.00,,2013-03-10 06:01:00,
2013-03-10 01:11:00,60.0,60.0,30.15,NE,45,2.0,11.0,100,0.00,,,0.00,,2013-03-10 06:11:00,
2013-03-10 01:22:00,60.0,60.0,30.15,NE,45,2.0,11.0,100,0.00,,,0.00,,2013-03-10 06:22:00,
2013-03-10 01:32:00,60.0,60.0,30.14,NE,55,4.0,4.0,100,0.00,,,0.00,,2013-03-10 06:32:00,
2013-03-10 01:42:00,60.0,60.0,30.15,NE,36,0.0,5.0,100,0.00,,,0.00,,2013-03-10 06:42:00,
2013-03-10 01:52:00,60.0,60.0,30.15,NE,36,0.0,5.0,100,0.00,,,0.00,,2013-03-10 06:52:00,
2013-03-10 03:02:00,60.0,60.0,30.14,NNE,24,1.0,7.0,100,0.00,,,0.00,,2013-03-10 07:02:00,
2013-03-10 03:11:00,60.0,60.0,30.15,NE,35,0.0,6.0,100,0.00,,,0.00,,2013-03-10 07:11:00,
2013-03-10 03:21:00,60.0,60.0,30.15,NE,35,0.0,6.0,100,0.00,,,0.00,,2013-03-10 07:21:00,
2013-03-10 03:32:00,60.0,60.0,30.16,NE,50,1.0,3.0,100,0.00,,,0.00,,2013-03-10 07:32:00,
2013-03-10 03:42:00,60.0,60.0,30.14,ENE,73,6.0,6.0,100,0.00,,,0.00,,2013-03-10 07:42:00,
2013-03-10 03:52:00,60.0,60.0,30.14,ENE,73,6.0,6.0,100,0.00,,,0.00,,2013-03-10 07:52:00,
2013-03-10 04:01:00,59.0,59.0,30.12,NNE,22,2.0,5.0,100,0.00,,,0.00,,2013-03-10 08:01:00,
2013-03-10 04:11:00,59.0,59.0,30.12,NE,41,2.0,5.0,100,0.00,,,0.00,,2013-03-10 08:11:00,
2013-03-10 04:21:00,59.0,59.0,30.12,NE,41,2.0,5.0,100,0.00,,,0.00,,2013-03-10 08:21:00,
2013-03-10 04:31:00,58.0,58.0,30.14,NE,36,4.0,4.0,100,0.00,,,0.00,,2013-03-10 08:31:00,
2013-03-10 04:42:00,58.0,58.0,30.12,NE,34,0.0,2.0,100,0.00,,,0.00,,2013-03-10 08:42:00,
2013-03-10 04:52:00,58.0,58.0,30.12,NE,34,0.0,2.0,100,0.00,,,0.00,,2013-03-10 08:52:00,
2013-03-10 05:01:00,58.0,58.0,30.12,NE,34,0.0,0.0,100,0.00,,,0.00,,2013-03-10 09:01:00,
2013-03-10 05:11:00,58.0,58.0,30.13,NE,34,1.0,3.0,100,0.00,,,0.00,,2013-03-10 09:11:00,
2013-03-10 05:21:00,58.0,58.0,30.13,NE,34,1.0,3.0,100,0.00,,,0.00,,2013-03-10 09:21:00,
2013-03-10 05:31:00,58.0,58.0,30.12,NE,34,1.0,2.0,100,0.00,,,0.00,,2013-03-10 09:31:00,
2013-03-10 05:41:00,58.0,58.0,30.11,NE,35,2.0,2.0,100,0.00,,,0.00,,2013-03-10 09:41:00,
2013-03-10 05:52:00,58.0,58.0,30.11,NE,35,2.0,2.0,100,0.00,,,0.00,,2013-03-10 09:52:00,
2013-03-10 06:01:00,58.0,58.0,30.11,NE,37,3.0,5.0,100,0.00,,,0.00,,2013-03-10 10:01:00,
2013-03-10 06:11:00,58.0,58.0,30.11,NE,37,3.0,5.0,100,0.00,,,0.00,,2013-03-10 10:11:00,
2013-03-10 06:21:00,58.0,58.0,30.12,NE,55,1.0,4.0,100,0.00,,,0.00,,2013-03-10 10:21:00,
2013-03-10 06:32:00,58.0,58.0,30.13,NNE,29,1.0,3.0,100,0.00,,,0.00,,2013-03-10 10:32:00,
2013-03-10 06:42:00,58.0,58.0,30.13,NNE,33,1.0,4.0,100,0.00,,,0.00,,2013-03-10 10:42:00,
2013-03-10 06:52:00,58.0,58.0,30.13,NNE,33,1.0,4.0,100,0.00,,,0.00,,2013-03-10 10:52:00,
2013-03-10 07:01:00,58.0,58.0,30.13,NE,55,2.0,3.0,100,0.00,,,0.00,,2013-03-10 11:01:00,
2013-03-10 07:12:00,58.0,58.0,30.12,NE,39,2.0,3.0,100,0.00,,,0.00,,2013-03-10 11:12:00,
2013-03-10 07:21:00,58.0,58.0,30.12,NE,39,2.0,3.0,100,0.00,,,0.00,,2013-03-10 11:21:00,
2013-03-10 07:32:00,58.0,58.0,30.14,NNE,33,2.0,4.0,100,0.00,,,0.00,,2013-03-10 11:32:00,
2013-03-10 07:42:00,58.0,58.0,30.14,NNE,33,2.0,4.0,100,0.00,,,0.00,,2013-03-10 11:42:00,
2013-03-10 07:52:00,58.0,58.0,30.14,NE,47,3.0,3.0,100,0.00,,,0.00,,2013-03-10 11:52:00,
2013-03-10 08:01:00,58.0,58.0,30.14,NE,47,1.0,3.0,100,0.00,,,0.00,,2013-03-10 12:01:00,
2013-03-10 08:11:00,58.0,58.0,30.14,NE,47,1.0,3.0,100,0.00,,,0.00,,2013-03-10 12:11:00,
2013-03-10 08:21:00,59.0,59.0,30.16,NE,46,1.0,3.0,100,0.00,,,0.00,,2013-03-10 12:21:00,
2013-03-10 08:31:00,59.0,59.0,30.16,NE,48,1.0,3.0,100,0.00,,,0.00,,2013-03-10 12:31:00,
2013-03-10 08:42:00,59.0,59.0,30.16,NE,48,1.0,3.0,100,0.00,,,0.00,,2013-03-10 12:42:00,
2013-03-10 08:52:00,59.0,59.0,30.17,NNE,32,1.0,4.0,100,0.00,,,0.00,,2013-03-10 12:52:00,
2013-03-10 09:01:00,60.0,60.0,30.16,North,9,3.0,3.0,100,0.00,,,0.00,,2013-03-10 13:01:00,
2013-03-10 09:11:00,60.0,60.0,30.16,North,9,3.0,3.0,100,0.00,,,0.00,,2013-03-10 13:11:00,
2013-03-10 09:21:00,61.0,61.0,30.16,ENE,57,1.0,4.0,100,0.00,,,0.00,,2013-03-10 13:21:00,
2013-03-10 09:32:00,62.0,62.0,30.16,NNE,28,3.0,5.0,100,0.00,,,0.00,,2013-03-10 13:32:00,
2013-03-10 09:42:00,62.0,62.0,30.16,NNE,28,3.0,5.0,100,0.00,,,0.00,,2013-03-10 13:42:00,
2013-03-10 09:52:00,63.0,63.0,30.16,NE,43,2.0,4.0,100,0.00,,,0.00,,2013-03-10 13:52:00,
2013-03-10 10:01:00,65.0,65.0,30.16,NE,41,2.0,8.0,100,0.00,,,0.00,,2013-03-10 14:01:00,
2013-03-10 10:11:00,65.0,65.0,30.16,NE,41,2.0,8.0,100,0.00,,,0.00,,2013-03-10 14:11:00,
2013-03-10 10:21:00,65.0,65.0,30.16,NE,45,7.0,8.0,100,0.00,,,0.00,,2013-03-10 14:21:00,
2013-03-10 10:32:00,65.0,65.0,30.17,NE,34,1.0,2.0,100,0.00,,,0.00,,2013-03-10 14:32:00,
2013-03-10 10:42:00,65.0,65.0,30.17,NE,34,1.0,2.0,100,0.00,,,0.00,,2013-03-10 14:42:00,
2013-03-10 10:52:00,70.0,70.0,30.17,NE,36,4.0,7.0,100,0.00,,,0.00,,2013-03-10 14:52:00,
2013-03-10 11:01:00,70.0,70.0,30.16,North,8,0.0,11.0,100,0.00,,,0.00,,2013-03-10 15:01:00,
2013-03-10 11:11:00,70.0,70.0,30.16,North,8,0.0,11.0,100,0.00,,,0.00,,2013-03-10 15:11:00,
2013-03-10 11:21:00,73.0,73.0,30.16,East,81,2.0,4.0,100,0.00,,,0.00,,2013-03-10 15:21:00,
2013-03-10 11:32:00,74.0,74.0,30.14,NNE,15,4.0,7.0,100,0.00,,,0.00,,2013-03-10 15:32:00,
2013-03-10 11:42:00,74.0,74.0,30.14,NNE,15,4.0,7.0,100,0.00,,,0.00,,2013-03-10 15:42:00,
2013-03-10 11:52:00,74.0,74.0,30.13,SE,124,3.0,8.0,100,0.00,,,0.00,,2013-03-10 15:52:00,
2013-03-10 12:01:00,74.0,74.0,30.13,East,86,4.0,8.0,100,0.00,,,0.00,,2013-03-10 16:01:00,
2013-03-10 12:12:00,74.0,74.0,30.13,East,86,4.0,8.0,100,0.00,,,0.00,,2013-03-10 16:12:00,
2013-03-10 12:21:00,76.0,76.0,30.13,ESE,118,6.0,8.0,100,0.00,,,0.00,,2013-03-10 16:21:00,
2013-03-10 12:32:00,76.0,76.0,30.11,ESE,112,6.0,10.0,100,0.00,,,0.00,,2013-03-10 16:32:00,
2013-03-10 12:41:00,76.0,76.0,30.11,ESE,112,6.0,10.0,100,0.00,,,0.00,,2013-03-10 16:41:00,
2013-03-10 12:52:00,77.0,77.0,30.12,ESE,114,6.0,13.0,100,0.00,,,0.00,,2013-03-10 16:52:00,
2013-03-10 13:01:00,78.0,78.0,30.12,ESE,123,7.0,7.0,100,0.00,,,0.00,,2013-03-10 17:01:00,
2013-03-10 13:11:00,78.0,78.0,30.12,ESE,123,7.0,7.0,100,0.00,,,0.00,,2013-03-10 17:11:00,
2013-03-10 13:21:00,78.0,78.0,30.13,SSE,153,4.0,12.0,100,0.00,,,0.00,,2013-03-10 17:21:00,
2013-03-10 13:31:00,81.0,81.0,30.11,East,91,5.0,7.0,100,0.00,,,0.00,,2013-03-10 17:31:00,
2013-03-10 13:41:00,81.0,81.0,30.11,East,91,5.0,7.0,100,0.00,,,0.00,,2013-03-10 17:41:00,
2013-03-10 13:51:00,81.0,81.0,30.13,NNE,23,2.0,9.0,100,0.00,,,0.00,,2013-03-10 17:51:00,
2013-03-10 14:01:00,82.0,82.0,30.11,ESE,109,5.0,9.0,100,0.00,,,0.00,,2013-03-10 18:01:00,
2013-03-10 14:11:00,82.0,82.0,30.11,SE,131,5.0,6.0,100,0.00,,,0.00,,2013-03-10 18:11:00,
2013-03-10 14:22:00,82.0,82.0,30.11,SE,131,5.0,6.0,100,0.00,,,0.00,,2013-03-10 18:22:00,
2013-03-10 14:32:00,83.0,83.0,30.10,NNE,30,1.0,4.0,100,0.00,,,0.00,,2013-03-10 18:32:00,
2013-03-10 14:42:00,83.0,83.0,30.10,NNE,30,1.0,4.0,100,0.00,,,0.00,,2013-03-10 18:42:00,
2013-03-10 14:52:00,83.0,83.0,30.09,NNE,23,2.0,7.0,100,0.00,,,0.00,,2013-03-10 18:52:00,
2013-03-10 15:01:00,84.0,84.0,30.09,ESE,115,6.0,13.0,100,0.00,,,0.00,,2013-03-10 19:01:00,
2013-03-10 15:11:00,84.0,84.0,30.09,ESE,115,6.0,13.0,100,0.00,,,0.00,,2013-03-10 19:11:00,
2013-03-10 15:21:00,84.0,84.0,30.08,SE,136,4.0,8.0,100,0.00,,,0.00,,2013-03-10 19:21:00,
2013-03-10 15:32:00,78.0,78.0,30.08,South,185,4.0,9.0,100,0.00,,,0.00,,2013-03-10 19:32:00,
2013-03-10 15:42:00,78.0,78.0,30.08,South,185,4.0,9.0,100,0.00,,,0.00,,2013-03-10 19:42:00,
2013-03-10 15:53:00,76.0,76.0,30.09,SSW,193,8.0,9.0,100,0.00,,,0.00,,2013-03-10 19:53:00,
2013-03-10 16:02:00,75.0,75.0,30.08,SSW,208,5.0,6.0,100,0.00,,,0.00,,2013-03-10 20:02:00,
2013-03-10 16:12:00,75.0,75.0,30.08,SSW,208,5.0,6.0,100,0.00,,,0.00,,2013-03-10 20:12:00,
2013-03-10 16:22:00,74.0,74.0,30.08,SSW,197,4.0,9.0,100,0.00,,,0.00,,2013-03-10 20:22:00,
2013-03-10 16:32:00,74.0,74.0,30.09,SW,217,7.0,7.0,100,0.00,,,0.00,,2013-03-10 20:32:00,
2013-03-10 16:42:00,74.0,74.0,30.09,SW,217,7.0,7.0,100,0.00,,,0.00,,2013-03-10 20:42:00,
2013-03-10 16:53:00,75.0,75.0,30.08,SSW,208,2.0,6.0,100,0.00,,,0.00,,2013-03-10 20:53:00,
2013-03-10 17:02:00,74.0,74.0,30.08,West,281,7.0,7.0,100,0.00,,,0.00,,2013-03-10 21:02:00,
2013-03-10 17:12:00,74.0,74.0,30.08,West,281,7.0,7.0,100,0.00,,,0.00,,2013-03-10 21:12:00,
2013-03-10 17:23:00,75.0,75.0,30.07,SSW,193,5.0,5.0,100,0.00,,,0.00,,2013-03-10 21:23:00,
2013-03-10 17:32:00,73.0,73.0,30.07,SW,215,1.0,4.0,100,0.00,,,0.00,,2013-03-10 21:32:00,
2013-03-10 17:42:00,73.0,73.0,30.07,SW,215,1.0,4.0,100,0.00,,,0.00,,2013-03-10 21:42:00,
2013-03-10 17:53:00,76.0,76.0,30.06,WSW,247,1.0,3.0,100,0.00,,,0.00,,2013-03-10 21:53:00,
2013-03-10 18:02:00,75.0,75.0,30.07,SW,219,2.0,4.0,100,0.00,,,0.00,,2013-03-10 22:02:00,
2013-03-10 18:12:00,75.0,75.0,30.07,SW,219,2.0,4.0,100,0.00,,,0.00,,2013-03-10 22:12:00,
2013-03-10 18:22:00,72.0,72.0,30.06,SW,236,3.0,3.0,100,0.00,,,0.00,,2013-03-10 22:22:00,
2013-03-10 18:32:00,73.0,73.0,30.06,SSW,209,2.0,4.0,100,0.00,,,0.00,,2013-03-10 22:32:00,
2013-03-10 18:43:00,73.0,73.0,30.06,SSW,209,2.0,4.0,100,0.00,,,0.00,,2013-03-10 22:43:00,
2013-03-10 18:53:00,72.0,72.0,30.06,SW,229,1.0,3.0,100,0.00,,,0.00,,2013-03-10 22:53:00,
2013-03-10 19:03:00,71.0,71.0,30.06,SW,218,2.0,3.0,100,0.00,,,0.00,,2013-03-10 23:03:00,
2013-03-10 19:12:00,71.0,71.0,30.07,SW,218,3.0,3.0,100,0.00,,,0.00,,2013-03-10 23:12:00,
2013-03-10 19:23:00,71.0,71.0,30.07,SW,218,3.0,3.0,100,0.00,,,0.00,,2013-03-10 23:23:00,
2013-03-10 19:33:00,70.0,70.0,30.08,WNW,294,2.0,5.0,100,0.00,,,0.00,,2013-03-10 23:33:00,
2013-03-10 19:42:00,70.0,70.0,30.08,WNW,294,2.0,5.0,100,0.00,,,0.00,,2013-03-10 23:42:00,
2013-03-10 19:52:00,69.0,69.0,30.08,WNW,288,5.0,5.0,100,0.00,,,0.00,,2013-03-10 23:52:00,
2013-03-10 20:02:00,69.0,69.0,30.08,WNW,303,4.0,6.0,100,0.00,,,0.00,,2013-03-11 00:02:00,
2013-03-10 20:12:00,69.0,69.0,30.08,WNW,303,4.0,6.0,100,0.00,,,0.00,,2013-03-11 00:12:00,
2013-03-10 20:23:00,68.0,68.0,30.09,NW,305,1.0,4.0,100,0.00,,,0.00,,2013-03-11 00:23:00,
2013-03-10 20:33:00,68.0,68.0,30.09,NW,310,1.0,2.0,100,0.00,,,0.00,,2013-03-11 00:33:00,
2013-03-10 20:43:00,68.0,68.0,30.09,NW,310,1.0,2.0,100,0.00,,,0.00,,2013-03-11 00:43:00,
2013-03-10 20:53:00,67.0,67.0,30.09,NW,310,3.0,3.0,100,0.00,,,0.00,,2013-03-11 00:53:00,
2013-03-10 21:03:00,67.0,67.0,30.09,NW,311,0.0,1.0,100,0.00,,,0.00,,2013-03-11 01:03:00,
2013-03-10 21:13:00,67.0,67.0,30.09,NW,311,0.0,1.0,100,0.00,,,0.00,,2013-03-11 01:13:00,
2013-03-10 21:23:00,67.0,67.0,30.11,NW,311,0.0,0.0,100,0.00,,,0.00,,2013-03-11 01:23:00,
2013-03-10 21:32:00,66.0,66.0,30.10,NW,311,2.0,4.0,100,0.00,,,0.00,,2013-03-11 01:32:00,
2013-03-10 21:42:00,66.0,66.0,30.10,NW,311,2.0,4.0,100,0.00,,,0.00,,2013-03-11 01:42:00,
2013-03-10 21:53:00,67.0,67.0,30.10,NW,311,1.0,2.0,100,0.00,,,0.00,,2013-03-11 01:53:00,
2013-03-10 22:02:00,68.0,68.0,30.11,NW,311,1.0,2.0,100,0.00,,,0.00,,2013-03-11 02:02:00,
2013-03-10 22:12:00,68.0,68.0,30.11,NW,311,1.0,2.0,100,0.00,,,0.00,,2013-03-11 02:12:00,
2013-03-10 22:23:00,67.0,67.0,30.11,NW,311,1.0,2.0,100,0.00,,,0.00,,2013-03-11 02:23:00,
2013-03-10 22:32:00,67.0,67.0,30.13,NW,311,1.0,2.0,100,0.00,,,0.00,,2013-03-11 02:32:00,
2013-03-10 22:42:00,67.0,67.0,30.13,NW,311,1.0,2.0,100,0.00,,,0.00,,2013-03-11 02:42:00,
2013-03-10 22:53:00,70.0,70.0,30.11,NW,312,2.0,3.0,100,0.00,,,0.00,,2013-03-11 02:53:00,
2013-03-10 23:02:00,69.0,69.0,30.11,NNW,344,2.0,4.0,100,0.00,,,0.00,,2013-03-11 03:02:00,
2013-03-10 23:12:00,69.0,69.0,30.11,NNW,344,2.0,4.0,100,0.00,,,0.00,,2013-03-11 03:12:00,
2013-03-10 23:22:00,70.0,70.0,30.11,NNW,344,1.0,3.0,100,0.00,,,0.00,,2013-03-11 03:22:00,
2013-03-10 23:32:00,70.0,70.0,30.11,NNW,344,1.0,3.0,100,0.00,,,0.00,,2013-03-11 03:32:00,
2013-03-10 23:42:00,70.0,70.0,30.11,NNW,344,1.0,3.0,100,0.00,,,0.00,,2013-03-11 03:42:00,
2013-03-10 23:53:00,68.0,68.0,30.12,NNW,347,1.0,1.0,100,0.00,,,0.00,,2013-03-11 03:53:00,